www.pogodaiklimat.ru

Погода и климат >> Архив погоды >> Монголия >> Улан-Батор


АРХИВ ПОГОДЫ в Улан-Баторе

Время (UTC), дата Ветер
(напр.,м/с)
 
Видим.   Явления Облачность Т
(С)
Тd
(С)
f
(%)
Тe
(С)
Тes
(С)
Комфортность P
(гПа)
Po
(гПа)
Тmin
(С)
Tmax
(С)
R
(мм)
R24
(мм)
S
(см)
21 18.06 С 4 50 км 4/0 2000 м
[Ac trans Cc]
+15.5 +8.7 76 +13 +13 по сезону 1014.9 861.8
00 19.06 ЮВ 2 50 км 4/0 2000 м
[Ac cast Cc]
+16.2 +9.2 63 +16 +21 тепло 1014.0 869.1 +12.6
03 19.06 З 3 2000 м мгла 8/3 1000 м
[Cu med, cong Ci]
+18.8 +10.6 46 +25 +36 комфорт 1009.8 863.0
06 19.06 СЗ 3 50 км 6/4 1000 м
[Cb calv Ci]
+25.8 +4.5 25 +25 +33 комфорт 1006.6 867.1
09 19.06 штиль 0 50 км 5/3 1000 м
[Cb calv Ci]
+22.6 +6.0 27 +26 +29 жарко 1005.0 1000.0
12 19.06 С 1 50 км 8/0 2000 м
[Ac As Cs]
+24.6 +2.7 24 +24 +24 комфорт 1006.2 866.2 +27.1
15 19.06 СВ 1 н/о 6/0 2000 м
[As trans]
+18.9 +7.1 46 +20 +20 тепло 1010.5 867.3
18 19.06 В 1 н/о 5/0
[Cs]
+16.1 +7.1 55 +17 +17 тепло 1012.4 867.7
21 19.06 СВ 4 50 км 3/0 2000 м
[Ac lent Ci]
+18.3 +6.2 59 +14 +14 по сезону 1013.9 861.2
00 20.06 В 2 50 км 3/0
[Ci fib]
+17.7 +6.6 48 +18 +23 тепло 1013.0 868.9 +13.4
03 20.06 СВ 1 50 км 3/0
[Ci]
+24.4 +4.8 28 +24 +41 комфорт 1008.8 868.3
06 20.06 ЮЗ 1 50 км 3/1 1000 м
[Cu med, cong Ci]
+28.0 +3.7 21 +26 +44 жарко 1005.8 867.3
09 20.06 В 5 50 км 6/3 1000 м
[Cu med, cong Cs]
+25.1 +1.9 17 +27 +34 жарко 1004.2 862.0
12 20.06 Ю 1 50 км 6/4 1000 м
[Cb calv Ac cuf]
+28.2 +2.4 19 +26 +26 жарко 1005.8 867.4 +29.9
15 20.06 З 2 н/о ясно +24.7 +6.6 36 +23 +23 комфорт 1010.1 863.6
18 20.06 В 4 н/о 1/0
[Ci fib]
+20.0 +6.0 40 +21 +21 комфорт 1012.0 869.1
21 20.06 СВ 5 50 км 4/0 2000 м
[Ac trans Ci]
+19.8 +6.4 43 +20 +20 тепло 1012.4 863.5
00 21.06 В 1 50 км 3/0 2000 м
[Ac trans Ci fib]
+21.8 +6.5 37 +23 +27 комфорт 1012.0 869.9 +16.8
03 21.06 В 1 2000 м мгла 4/1 1000 м
[Cu hum Ci]
+27.8 +6.6 26 +27 +42 жарко 1008.6 869.6
06 21.06 З 2 50 км 8/4 1000 м
[Cu med, cong Ac lent Cs]
+30.0 +0.6 15 +27 +34 жарко 1006.2 868.5
09 21.06 В 7 50 км 6/4 1000 м
[Cb calv Ac lent Ci]
+28.1 -0.6 13 +28 +32 жарко 1004.2 862.0
12 21.06 ЮВ 1 50 км 8/0
[Cs]
+29.2 -1.0 14 +26 +27 жарко 1005.1 867.2 +31.4
15 21.06 В 8 н/о ясно +25.4 +2.7 25 +23 +23 комфорт 1008.4 862.0
18 21.06 штиль 0 н/о 4/0 2000 м
[Ac trans]
+19.4 +5.1 39 +20 +20 тепло 1011.5 868.4
21 21.06 В 4 50 км 6/0 2000 м
[Ac lent Ci]
+19.5 +2.8 33 +20 +20 тепло 1011.6 862.7
00 22.06 В 1 50 км 8/0
[Cs]
+23.0 +3.6 28 +23 +28 комфорт 1010.2 868.9 +19.0
03 22.06 В 6 2000 м мгла 8/0
[Cs]
+21.8 +3.3 20 +27 +42 душно 1006.6 862.7
06 22.06 ЮЗ 2 50 км 8/1 1000 м
[Cu hum Ac trans Cs]
+30.7 +0.2 14 +28 +37 жарко 1003.8 866.7
09 22.06 ЮЗ 2 50 км 9/3 1000 м
[Cb calv Ac As]
+29.9 -0.4 14 +27 +29 жарко 1002.7 865.4
12 22.06 ЮВ 1 50 км 9/3 1000 м
[Cb calv As trans]
+28.9 +1.5 17 +27 +27 жарко 1002.6 864.9 +31.4
15 22.06 В 3 н/о 4/0 2000 м
[Ac cuf]
+25.3 +6.4 33 +24 +24 комфорт 1005.6 859.5
18 22.06 В 1 н/о 3/0 2000 м
[Ac lent]
+19.0 +5.1 40 +20 +20 тепло 1007.5 864.8
21 22.06 В 5 50 км 4/0 2000 м
[Ac trans]
+21.7 +3.3 40 +17 +17 тепло 1008.2 858.0
00 23.06 ЮВ 3 50 км 8/0 2000 м
[Ac cast Cs]
+21.0 +4.2 33 +22 +25 комфорт 1006.8 865.1 +16.6
03 23.06 Ю 5 10 км мгла 8/0
[Ci]
+21.8 +6.2 28 +26 +34 душно 1004.0 859.7
06 23.06 З 3 50 км 6/5 1000 м
[Cb calv Ci fib]
+29.6 +5.0 21 +28 +35 жарко 1000.5 863.4
09 23.06 С 5
{21}
20 км гроза без осадков туман 9/8 600 м
[Cb cap Ci ing]
+27.9 +6.1 25 +27 +28 жарко 1000.8 862.9
12 23.06 штиль 0 50 км {гроза} 8/1 1000 м
[Cb calv Ac As Ci fib]
+26.0 +8.5 33 +26 +26 жарко 1002.2 863.3 +30.9
15 23.06 СВ 2 н/о 3/0 2000 м
[Ac lent Ci]
+20.3 +8.3 46 +22 +22 комфорт 1006.0 864.1
18 23.06 В 1 н/о 3/0
[Ci]
+18.2 +8.8 54 +19 +19 тепло 1006.6 863.7
21 23.06 СЗ 3 50 км 4/0 2000 м
[Ac As]
+19.3 +9.7 64 +17 +17 тепло 1008.1 858.1
00 24.06 СВ 3 50 км 8/0 2000 м
[Ac trans Cs]
+19.6 +10.6 56 +21 +24 комфорт 1006.4 864.1 +15.7
03 24.06 С 2 50 км 8/3 1000 м
[Cu hum Ac und Ci fib]
+20.3 +8.0 30 +27 +34 душно 1001.5 857.4
06 24.06 З 1 50 км 9/6 1000 м
[Cu med, cong Ac trans]
+27.5 +4.6 23 +26 +31 жарко 999.4 861.6
09 24.06 ЮЗ 1 50 км 9/6 600 м
[Cb calv Ac trans]
+25.3 +4.9 21 +28 +30 жарко 997.1 855.6
12 24.06 В 3 50 км 9/6 1000 м
[Cb calv Ac trans Cs]
+26.8 +7.3 29 +26 +27 жарко 998.2 860.2 +30.2
15 24.06 Ю 9 н/о слаб. ливневой дождь 9/9 600 м
[Cb cap]
+17.7 +13.8 63 +24 +24 комфорт 1002.0 855.5
18 24.06 В 5
{13}
н/о {ливн. осадки} 9/6 1000 м
[Cb calv Ac und]
+17.8 +14.9 83 +17 +17 тепло 1002.4 859.9
21 24.06 СВ 2 50 км 9/4 1000 м
[Cb calv Ac trans Cs]
+17.9 +12.8 72 +18 +18 тепло 1001.1 858.8
00 25.06 З 1 50 км 9/4 1000 м
[Sc Ac und Ci]
+19.1 +14.6 75 +22 +24 комфорт 1001.0 859.3 +17.4 2
03 25.06 З 4 2000 м ливневой дождь, в посл. час гроза 10/10 600 м
[Cb cap]
+17.3 +15.5 89 +17 +17 по сезону 1002.1 859.4
06 25.06 З 4 50 км {гроза, ливн. осадки} 9/6 1000 м
[Cb calv Ci]
+20.9 +10.1 50 +23 +27 комфорт 999.4 858.7
09 25.06 ЮЗ 9 50 км 5/4 1000 м
[Cb calv Ci]
+19.4 +4.6 28 +24 +28 комфорт 997.1 851.6
12 25.06 СЗ 4 50 км 1/0 2000 м
[Ac lent]
+22.5 -1.5 20 +21 +22 комфорт 999.2 859.2 +24.5 4
15 25.06 ЮЗ 8 н/о 4/0 2000 м
[Ac trans]
+16.8 +1.0 34 +18 +18 тепло 1003.4 852.8

 

Местоположение метеостанции Улан-Батор (Монголия): широта 47.92 долгота 106.85 высота над уровнем моря 1306 м.

В архиве по умолчанию представлена погода в Улан-Баторе за последнюю неделю. Архивные данные за месяц целиком и за предыдущие месяцы, начиная с января 2011 года, Вы можете получить, выбрав интересующий диапазон дат из раскрывающегося списка и нажав кнопку "Ввод!".


*Определитесь, кто Вы:
робот инопланетянин человек

Внимание! Время в таблицах - всемирное. Для получения местного времени необходимо прибавить поправку, которая равна 8 ч.

Смотрите также архив погоды в соседних городах и на ближайших метеорологических станциях:

Погода в Улан-Батор аэропорту (Монголия) (8 км)
Погода в Маанти (Монголия) (84 км)
Погода в Баруунхараа (Монголия) (126 км)
Погода в Хадатыне (Монголия) (172 км)
Погода в Чойре (Монголия) (193 км)
Погода в Мензе (Забайкальский край, Россия) (221 км)
Погода в Улыгайин Дуганг (Монголия) (222 км)
Погода в Мандалгоби (Монголия) (243 км)
Погода в Бат Олжий Вунд (Монголия) (253 км)
Погода в Булгане (Монголия) (263 км)

Пояснения к столбцам:

Ветер - указаны скорость ветра в м/с - средняя за 10 мин, порывы в срок и между сроками (в фигурных скобках) и направление, откуда дует ветер: С - северный, СВ - северо-восточный, В - восточный, ЮВ - юго-восточный, Ю - южный, ЮЗ - юго-западный, З - западный, СЗ - северо-западный.
Видимость - горизонтальная дальность видимости в метрах или километрах. При видимости от 1 до 10 км при отсутствии осадков обычно наблюдается дымка, при ухудшении видимости до 1 км и менее - туман. В сухую погоду видимость может ухудшаться дымом, пылью или мглою.
Явления - указаны атмосферные явления, наблюдавшиеся в срок или в последний час перед сроком; фигурными скобками обозначены явления, наблюдавшиеся между сроками (за 1-3 часа до срока); квадратными скобками обозначены град или гололедные отложения с указанием их диаметра в мм.
Облачность - указаны через наклонную черту общая и нижняя облачность в баллах и высота нижней границы облаков в метрах; квадратными скобками обозначены формы облаков: Ci - перистые, Cs - перисто-слоистые, Cc - перисто-кучевые, Ac - высококучевые, As - высокослоистые, Sc - слоисто-кучевые, Ns - слоисто-дождевые, Cu - кучевые, Cb - кучево-дождевые. Подробнее классификацию облаков см. в Атласе облаков (PDF).
T - Температура воздуха - температура, измеренная на высоте 2 м над землей.
Td - Температура точки росы - температура, при понижении до которой содержащийся в воздухе водяной пар достигнет насыщения.
f - Относительная влажность воздуха - влажноcть воздуха, измеренная на высоте 2 м над землей.
Te - Эффективная температура - температура, которую ощущает одетый по сезону человек в тени. Характеристика душности погоды. При расчете учитывается влияние влажности воздуха и скорости ветра на теплоощущения человека.
Tes - Эффективная температура на солнце - температура, которую ощущает человек, с поправкой на солнечный нагрев. Характеристика знойности погоды. Зависит от высоты солнца над горизонтом, облачности и скорости ветра. Ночью, в пасмурную погоду, а также при ветре 12 м/с и более поправка равна нулю.
P - Атмосферное давление - приведенное к уровню моря атмосферное давление.
Po - Атмосферное давление - измеренное на уровне метеостанции атмосферное давление.
Tmin - Минимальная температура - минимум температуры воздуха на высоте 2 м над землей.
Tmax - Максимальная температура - максимум температуры воздуха на высоте 2 м над землей.
R - Количество осадков - Количество выпавших осадков за период времени, мм. При наведении курсора мыши на число - период времени, за который выпало указанное количество осадков.
R24 - Количество осадков - Количество выпавших осадков за 24 часа, мм.
S - Снежный покров - Высота снежного покрова, см. При наведении курсора мыши на число - состояние снежного покрова и степень покрытия местности в баллах.